GW0664 Weather Reports


Display with metric or nautical units.
time (UTC)temp
F
wind
direction
speed
MPH
gust
MPH
rain 1hr
in
rain 24hr
in
rain mn
in
humidity
%
barometer
mb
20260504044547 56 345 11.0 14.0 0.00 0.00 0.00 38 1010.4
20260504043051 57 345 10.0 13.0 0.00 0.00 0.00 37 1009.9
20260504041557 58 345 13.0 20.0 0.00 0.00 0.00 36 1009.6
20260504040050 59 68 15.0 20.0 0.00 0.00 0.00 36 1009.2
20260504034543 59 345 14.0 20.0 0.00 0.00 0.00 36 1009.0
20260504033047 60 68 17.0 27.0 0.00 0.00 0.00 35 1008.6
20260504031550 62 68 17.0 23.0 0.00 0.00 0.00 33 1008.2
20260504030047 63 66 15.0 21.0 0.00 0.00 0.00 26 1007.9
20260504024554 63 345 7.0 9.0 0.00 0.00 0.00 25 1007.5
20260504023043 65 345 5.0 10.0 0.00 0.00 0.00 24 1007.4
20260504021610 67 345 7.0 11.0 0.00 0.00 0.00 23 1007.3
20260504020042 69 345 8.0 13.0 0.00 0.00 0.00 22 1007.2
20260504014548 71 53 10.0 14.0 0.00 0.00 0.00 21 1007.3
20260504013045 72 345 13.0 21.0 0.00 0.00 0.00 20 1007.3
20260504011543 73 345 14.0 20.0 0.00 0.00 0.00 20 1007.3
20260504010041 74 345 15.0 20.0 0.00 0.00 0.00 19 1007.3
20260504004545 74 345 11.0 18.0 0.00 0.00 0.00 19 1007.2
20260504003045 74 345 13.0 18.0 0.00 0.00 0.00 19 1007.4
20260504001546 75 345 14.0 20.0 0.00 0.00 0.00 19 1007.6
20260504000112 75 345 13.0 24.0 0.00 0.00 0.00 18 1007.6
20260503234550 75 345 10.0 16.0 0.00 0.00 0.00 18 1007.6
20260503233039 74 345 13.0 18.0 0.00 0.00 0.00 19 1007.7
20260503231548 74 345 7.0 20.0 0.00 0.00 0.00 18 1007.8
20260503230049 74 345 16.0 23.0 0.00 0.00 0.00 19 1008.0
20260503224544 74 345 10.0 21.0 0.00 0.00 0.00 18 1008.2
20260503223042 74 345 7.0 19.0 0.00 0.00 0.00 18 1008.3
20260503221549 74 345 16.0 24.0 0.00 0.00 0.00 18 1008.8
20260503220040 74 345 12.0 21.0 0.00 0.00 0.00 18 1008.9
20260503214546 73 345 12.0 22.0 0.00 0.00 0.00 17 1009.1
20260503213046 73 345 14.0 20.0 0.00 0.00 0.00 17 1009.3
20260503211544 73 345 8.0 16.0 0.00 0.00 0.00 17 1009.6
20260503210041 72 345 13.0 23.0 0.00 0.00 0.00 18 1009.9
20260503204540 72 345 13.0 21.0 0.00 0.00 0.00 18 1009.9
20260503203103 71 345 13.0 21.0 0.00 0.00 0.00 18 1010.1
20260503201546 70 345 10.0 24.0 0.00 0.00 0.00 18 1010.4
20260503200045 70 345 13.0 22.0 0.00 0.00 0.00 18 1010.7
20260503194554 70 345 12.0 24.0 0.00 0.00 0.00 19 1010.8
20260503193040 69 345 6.0 22.0 0.00 0.00 0.00 21 1010.9
20260503191546 68 345 12.0 20.0 0.00 0.00 0.00 21 1011.4
20260503190045 68 345 8.0 21.0 0.00 0.00 0.00 21 1011.7
20260503184544 68 345 9.0 18.0 0.00 0.00 0.00 22 1011.8
20260503183050 67 345 12.0 21.0 0.00 0.00 0.00 23 1012.0
20260503181559 67 345 9.0 20.0 0.00 0.00 0.00 23 1012.3
20260503180040 67 345 13.0 20.0 0.00 0.00 0.00 24 1012.4
20260503174544 67 345 11.0 18.0 0.00 0.00 0.00 25 1012.6
20260503173052 66 345 14.0 19.0 0.00 0.00 0.00 25 1012.8
20260503171540 66 345 13.0 18.0 0.00 0.00 0.00 26 1012.7
20260503081545 46 345 3.0 5.0 0.00 0.00 0.00 72 1015.1
20260503071556 48 0 0.0 4.0 0.00 0.00 0.00 68 1015.3